TimeEDT,TemperatureF,Dew PointF,Humidity,Sea Level PressureIn,VisibilityMPH,Wind Direction,Wind SpeedMPH,Gust SpeedMPH,PrecipitationIn,Events,Conditions,WindDirDegrees,DateUTC
12:07 AM,46.9,46.9,100,30.45,10.0,East,6.9,-,N/A,,Clear,80,2013-05-02 04:07:00
12:27 AM,46.6,46.6,100,30.45,10.0,East,9.2,-,N/A,,Clear,90,2013-05-02 04:27:00
12:47 AM,46.6,46.6,100,30.45,10.0,East,6.9,-,N/A,,Clear,100,2013-05-02 04:47:00
1:07 AM,46.4,46.4,100,30.45,10.0,East,4.6,-,N/A,,Clear,100,2013-05-02 05:07:00
1:27 AM,46.0,46.0,100,30.46,10.0,Calm,Calm,-,N/A,,Clear,0,2013-05-02 05:27:00
1:47 AM,45.5,45.5,100,30.45,7.0,Calm,Calm,-,N/A,,Clear,0,2013-05-02 05:47:00
2:07 AM,44.8,44.8,100,30.45,7.0,Calm,Calm,-,N/A,,Clear,0,2013-05-02 06:07:00
2:27 AM,44.1,44.1,100,30.44,5.0,Calm,Calm,-,N/A,,Scattered Clouds,0,2013-05-02 06:27:00
2:47 AM,45.3,45.3,100,30.44,7.0,Calm,Calm,-,N/A,,Mostly Cloudy,0,2013-05-02 06:47:00
3:07 AM,46.4,46.4,100,30.43,10.0,ESE,3.5,-,N/A,,Overcast,110,2013-05-02 07:07:00
3:27 AM,46.9,46.9,100,30.44,10.0,East,4.6,-,N/A,,Overcast,80,2013-05-02 07:27:00
3:48 AM,47.3,47.3,100,30.44,10.0,Calm,Calm,-,N/A,,Overcast,0,2013-05-02 07:48:00
4:08 AM,47.5,47.5,100,30.44,10.0,Calm,Calm,-,N/A,,Overcast,0,2013-05-02 08:08:00
4:28 AM,47.5,47.5,100,30.44,10.0,East,3.5,-,N/A,,Overcast,90,2013-05-02 08:28:00
4:48 AM,47.7,47.7,100,30.44,10.0,East,3.5,-,N/A,,Overcast,100,2013-05-02 08:48:00
5:08 AM,48.0,48.0,100,30.44,7.0,East,4.6,-,N/A,,Overcast,90,2013-05-02 09:08:00
5:28 AM,48.2,48.2,100,30.44,7.0,Calm,Calm,-,N/A,,Overcast,0,2013-05-02 09:28:00
5:48 AM,48.2,48.2,100,30.44,10.0,East,4.6,-,N/A,,Overcast,100,2013-05-02 09:48:00
5:53 AM,48.2,48.2,100,30.44,7.0,Calm,Calm,-,N/A,,Overcast,0,2013-05-02 09:53:00
6:08 AM,48.4,48.4,100,30.44,7.0,Calm,Calm,-,N/A,,Overcast,0,2013-05-02 10:08:00
6:28 AM,48.4,48.4,100,30.44,4.0,NNE,3.5,-,N/A,,Overcast,20,2013-05-02 10:28:00
6:48 AM,48.6,48.6,100,30.45,4.0,Calm,Calm,-,N/A,,Overcast,0,2013-05-02 10:48:00
6:53 AM,48.2,48.2,100,30.45,4.0,Calm,Calm,-,N/A,,Overcast,0,2013-05-02 10:53:00
7:08 AM,49.1,49.1,100,30.45,5.0,Calm,Calm,-,N/A,,Overcast,0,2013-05-02 11:08:00
7:28 AM,49.3,49.3,100,30.46,7.0,NNE,4.6,-,N/A,,Overcast,30,2013-05-02 11:28:00
7:42 AM,49.3,49.3,100,30.46,7.0,NE,4.6,-,N/A,,Overcast,50,2013-05-02 11:42:00
7:53 AM,50.0,50.0,100,30.47,7.0,NNE,4.6,-,N/A,,Overcast,30,2013-05-02 11:53:00
8:53 AM,50.0,50.0,100,30.47,10.0,ENE,5.8,-,N/A,,Overcast,70,2013-05-02 12:53:00
9:53 AM,53.6,50.0,88,30.48,10.0,NE,5.8,-,N/A,,Overcast,40,2013-05-02 13:53:00
10:53 AM,55.4,50.0,82,30.48,10.0,East,4.6,-,N/A,,Overcast,80,2013-05-02 14:53:00
11:50 AM,59.0,50.0,72,30.47,10.0,NE,4.6,-,N/A,,Overcast,40,2013-05-02 15:50:00
12:45 PM,62.6,50.0,63,30.45,10.0,East,9.2,-,N/A,,Mostly Cloudy,90,2013-05-02 16:45:00
1:45 PM,66.2,50.0,56,30.44,10.0,ENE,10.4,-,N/A,,Scattered Clouds,70,2013-05-02 17:45:00
2:48 PM,66.2,50.0,56,30.43,10.0,ENE,8.1,16.1,N/A,,Scattered Clouds,60,2013-05-02 18:48:00
3:50 PM,66.2,46.4,49,30.42,10.0,ENE,13.8,18.4,N/A,,Clear,70,2013-05-02 19:50:00
4:45 PM,66.2,42.8,43,30.41,10.0,East,11.5,19.6,N/A,,Clear,90,2013-05-02 20:45:00
5:48 PM,66.2,44.6,46,30.39,10.0,East,9.2,-,N/A,,Clear,80,2013-05-02 21:48:00
6:58 PM,64.4,41.0,42,30.37,10.0,East,5.8,-,N/A,,Clear,80,2013-05-02 22:58:00
7:50 PM,59.0,42.8,55,30.37,10.0,East,4.6,-,N/A,,Clear,90,2013-05-02 23:50:00
8:52 PM,55.4,44.6,67,30.37,10.0,ESE,3.5,-,N/A,,Clear,120,2013-05-03 00:52:00
10:50 PM,50.2,44.2,80,30.38,10.0,Calm,Calm,-,N/A,,Clear,0,2013-05-03 02:50:00
11:10 PM,48.6,44.8,87,30.38,10.0,Calm,Calm,-,N/A,,Clear,0,2013-05-03 03:10:00
11:30 PM,47.5,44.4,89,30.38,10.0,SE,3.5,-,N/A,,Clear,140,2013-05-03 03:30:00
11:50 PM,46.8,43.9,90,30.37,10.0,Calm,Calm,-,N/A,,Clear,0,2013-05-03 03:50:00